Rome, NY

1:14 PM EDT on July 25, 2017 (GMT -0400)
Griffiss

Weather History for KRME - August, 2013

Change the Weather History Date:

Wednesday, August 7, 2013

  Actual Average Record
Temperature  
Mean Temperature 68 °F -  
Max Temperature 75 °F 80 °F 93 °F (1965)
Min Temperature 63 °F 59 °F 48 °F (1992)
Cooling Degree Days 3    
Growing Degree Days 18 (Base 50)    
Moisture  
Dew Point 61 °F    
Average Humidity 73    
Maximum Humidity 81    
Minimum Humidity 65    
Precipitation  
Precipitation 0.00 in - - ()
Sea Level Pressure  
Sea Level Pressure 30.04 in    
Wind  
Wind Speed 7 mph (SE)    
Max Wind Speed 13 mph    
Max Gust Speed 23 mph    
Visibility 10 miles    
Events      
Averages and records for this station are not official NWS values.
T = Trace of Precipitation, MM = Missing Value Source: NWS Daily Summary

Daily Weather History Graph

Daily Weather History Graph

Search for Another Location

Airport or City:

Trip Planner

Search our weather history database for the weather conditions in past years. The results will help you decide how hot, cold, wet, or windy it might be!

Date:

Astronomy

Aug. 07, 2013 Rise Set
Actual Time 5:58 AM EDT 8:15 PM EDT
Civil Twilight 5:26 AM EDT 8:47 PM EDT
Nautical Twilight 4:47 AM EDT 9:26 PM EDT
Astronomical Twilight 4:04 AM EDT 10:09 PM EDT
Moon 6:48 AM EDT (8/7) 8:17 PM EDT (8/7)
Length of Visible Light 15h 20m
Length of Day
14h 16m
New Moon, 1% of the Moon is Illuminated
Aug 7
New Moon
Aug 14
First Quarter
Aug 20
Full
Aug 28
Last Quarter
Sep 5
New

Hourly Weather History & Observations

Time (EDT) Temp. Dew Point Humidity Pressure Visibility Wind Dir Wind Speed Gust Speed Precip Events Conditions
12:53 AM 68.0 °F 55.9 °F 65% 30.07 in 10.0 mi East 6.9 mph - N/A   Overcast
1:53 AM 66.9 °F 55.9 °F 68% 30.07 in 10.0 mi East 6.9 mph - N/A   Mostly Cloudy
2:53 AM 66.0 °F 57.0 °F 73% 30.07 in 10.0 mi East 5.8 mph - N/A   Clear
3:53 AM 64.0 °F 57.0 °F 78% 30.07 in 10.0 mi ESE 6.9 mph - N/A   Scattered Clouds
4:53 AM 63.0 °F 57.0 °F 81% 30.08 in 10.0 mi ESE 4.6 mph - N/A   Clear
5:40 AM 64.9 °F 57.0 °F 75% 30.10 in 10.0 mi East 5.8 mph - N/A   Mostly Cloudy
5:53 AM 64.9 °F 57.9 °F 78% 30.09 in 10.0 mi East 6.9 mph - N/A   Overcast
6:53 AM 66.0 °F 59.0 °F 78% 30.08 in 10.0 mi ESE 9.2 mph - N/A   Overcast
7:53 AM 66.9 °F 59.0 °F 76% 30.09 in 10.0 mi East 6.9 mph - N/A   Mostly Cloudy
8:53 AM 68.0 °F 60.1 °F 76% 30.08 in 10.0 mi SE 8.1 mph - N/A   Overcast
9:53 AM 69.1 °F 61.0 °F 75% 30.07 in 10.0 mi ESE 5.8 mph - N/A   Overcast
10:12 AM 70.0 °F 61.0 °F 73% 30.08 in 10.0 mi SE 5.8 mph - N/A   Overcast
10:53 AM 70.0 °F 61.0 °F 73% 30.07 in 10.0 mi South 4.6 mph - N/A   Overcast
11:53 AM 72.0 °F 62.1 °F 71% 30.06 in 10.0 mi SE 5.8 mph - N/A   Overcast
12:53 PM 72.0 °F 62.1 °F 71% 30.06 in 10.0 mi SE 4.6 mph - N/A   Overcast
1:53 PM 73.9 °F 62.1 °F 66% 30.04 in 10.0 mi SE 9.2 mph - N/A   Overcast
2:53 PM 73.0 °F 63.0 °F 71% 30.03 in 10.0 mi South 12.7 mph 18.4 mph N/A   Overcast
3:53 PM 73.0 °F 63.0 °F 71% 30.03 in 10.0 mi South 12.7 mph 23.0 mph N/A   Overcast
4:53 PM 73.9 °F 64.0 °F 71% 30.00 in 10.0 mi SE 10.4 mph - N/A   Overcast
5:53 PM 73.9 °F 64.0 °F 71% 29.99 in 10.0 mi South 10.4 mph - N/A   Overcast
6:53 PM 73.9 °F 63.0 °F 68% 29.99 in 10.0 mi South 8.1 mph - N/A   Overcast
7:05 PM 73.9 °F 63.0 °F 68% 29.99 in 10.0 mi SSE 6.9 mph - N/A   Overcast
7:53 PM 73.0 °F 64.0 °F 73% 29.98 in 10.0 mi SSE 6.9 mph - N/A   Overcast
8:19 PM 73.0 °F 64.0 °F 73% 29.99 in 10.0 mi SE 5.8 mph - N/A   Overcast
8:31 PM 73.0 °F 64.0 °F 73% 29.99 in 10.0 mi SE 5.8 mph - N/A   Overcast
8:53 PM 72.0 °F 64.0 °F 76% 29.99 in 10.0 mi ESE 6.9 mph - N/A   Overcast
9:53 PM 72.0 °F 64.0 °F 76% 29.98 in 10.0 mi ESE 9.2 mph - N/A   Overcast
10:53 PM 71.1 °F 64.0 °F 78% 29.98 in 10.0 mi East 4.6 mph - N/A   Mostly Cloudy
11:53 PM 71.1 °F 64.0 °F 78% 29.97 in 10.0 mi East 5.8 mph - N/A   Overcast